[[{"header":{"parameterUnit":"m.s-1","parameterCategory":1,"la1":30.2991,"la2":30.254,"lo1":-89.0895,"lo2":-89.0444,"dy":0.0017,"dx":0.0017,"nx":28,"ny":28,"refTime":"2024-08-13T21:00:00:Z","depth":0,"parameterNumber":2,"parameterNumberName":"U-component_of_WINDS"},"data":[0,0,0,0,0,0,0,0,0,0,0,0,0,0,0,0,0,0,0,0,0,0,0,0,0,0,0,0,0,0,0,0,0,0,0,0,0,0,0,0,0,0,0,0,0,0,0,0,0,0,0,0,0,0,0,0,0,0,1.8078,1.8079,0,1.822,1.8222,1.8223,1.8278,1.8278,1.8277,1.8277,1.8418,1.8422,1.8426,0,0,0,0,0,0,0,0,0,0,0,0,0,1.7845,1.7849,1.8077,1.8079,1.8081,1.822,1.8222,1.8224,1.8278,1.8278,1.8277,1.8277,1.8416,1.8421,1.8426,0,0,0,0,0,0,0,0,0,0,0,0,0,1.7962,1.785,1.8077,1.8125,1.8131,1.8219,1.8222,1.8224,1.8278,1.8278,1.8277,1.8276,1.8415,1.8421,1.8427,1.8477,0,0,1.8446,1.8448,0,0,0,0,0,0,0,0,1.7956,1.7971,1.8116,1.8122,1.8128,1.8231,1.8192,1.8309,1.8278,1.8222,1.8277,1.8276,1.8356,1.8367,1.8395,1.8483,1.8489,1.8446,1.845,1.8453,1.8454,0,0,0,0,0,0,0,1.7948,1.7965,1.8134,1.8118,1.8126,1.8137,1.8153,1.8214,1.829,1.8227,1.8231,1.8248,1.8359,1.8388,1.8398,1.8492,1.8446,1.8452,1.8455,1.8458,1.8626,1.8627,0,0,0,0,0,0,1.7932,1.7958,1.8129,1.8138,1.8039,1.8142,1.816,1.8198,1.829,1.8303,1.8248,1.825,1.8378,1.8391,1.8403,1.8467,1.8453,1.8458,1.8462,1.8626,1.8626,1.8627,0,0,0,0,0,0,1.7927,1.7947,1.8123,1.8049,1.8073,1.8146,1.8189,1.8202,1.8231,1.8306,1.8319,1.8265,1.8378,1.8395,1.8458,1.8473,1.8461,1.8467,1.8625,1.8626,1.8627,1.8595,0,0,0,0,0,0,1.792,1.7945,1.7967,1.8049,1.8076,1.8178,1.819,1.8205,1.8243,1.8246,1.8325,1.8337,1.8379,1.8449,1.8464,1.8481,1.8472,1.8624,1.8625,1.8627,1.8596,1.8595,1.8595,0,0,0,0,0,1.7912,1.7951,1.7968,1.7988,1.8105,1.8179,1.8194,1.8242,1.8244,1.8265,1.8312,1.8335,1.8468,1.8455,1.8473,1.8492,1.8623,1.8625,1.8626,1.8596,1.8595,1.8595,0,0,0,0,0,0,1.7867,1.7963,1.7982,1.805,1.8106,1.8188,1.8216,1.8241,1.8296,1.8297,1.8353,1.837,1.8429,1.8466,1.8449,1.8544,1.8547,1.8552,1.8517,1.8518,1.8518,1.8508,1.8477,0,0,0,0,0,1.7865,1.7919,1.7999,1.8051,1.8078,1.8142,1.8176,1.8208,1.8268,1.8291,1.8343,1.8398,1.8452,1.8487,1.8541,1.8601,1.8618,1.8622,1.8622,1.8622,1.8626,1.8659,1.8661,1.8633,1.8633,1.8633,0,0,1.7862,1.7921,1.7951,1.8044,1.8091,1.8143,1.8162,1.8216,1.8255,1.8299,1.8362,1.8402,1.8467,1.8528,1.8558,1.8561,1.8637,1.8624,1.8623,1.8628,1.8661,1.8663,1.8665,1.8634,1.8634,1.8634,0,0,1.7883,1.7933,1.7982,1.8028,1.81,1.8142,1.8153,1.8231,1.8259,1.8324,1.8358,1.8403,1.8495,1.854,1.8575,1.8609,1.8632,1.8625,1.8624,1.8656,1.8658,1.866,1.8672,1.8675,1.8628,1.8628,1.8628,0,1.7869,1.7952,1.8003,1.8056,1.8094,1.8137,1.8185,1.8227,1.8312,1.8336,1.8339,1.8455,1.8502,1.8574,1.8582,1.8609,1.8622,1.8617,1.8654,1.8656,1.8659,1.8671,1.8675,1.8627,1.8627,1.8627,1.8628,0,1.7931,1.7986,1.8016,1.8098,1.814,1.819,1.8247,1.8282,1.831,1.835,1.8414,1.8471,1.8537,1.8556,1.8584,1.8631,1.8631,1.8643,1.8648,1.866,1.8672,1.8676,1.8625,1.8626,1.8626,1.8626,0,0,1.793,1.8038,1.8048,1.8085,1.8165,1.8208,1.8258,1.8324,1.8353,1.8408,1.8451,1.8527,1.8538,1.8578,1.861,1.8637,1.866,1.8646,1.8648,1.8646,1.8714,1.8705,1.8709,1.8675,1.8676,1.8677,1.8708,0,1.7961,1.8056,1.8102,1.8175,1.8226,1.8266,1.8309,1.8362,1.84,1.8447,1.8489,1.8542,1.8553,1.8577,1.8606,1.8651,1.8674,1.8649,1.8713,1.8715,1.8697,1.8716,1.8707,1.8734,1.8713,1.8714,1.8715,0,1.8011,1.8067,1.8146,1.8219,1.8242,1.828,1.8343,1.8388,1.8447,1.8473,1.8516,1.8547,1.8599,1.8599,1.867,1.8652,1.8681,1.8707,1.8709,1.8717,1.8716,1.8724,1.8744,1.8748,1.8723,1.8722,1.8722,0,1.8001,1.8097,1.8156,1.8186,1.8272,1.8298,1.8335,1.8394,1.843,1.8483,1.8507,1.8565,1.8597,1.8641,1.8686,1.8682,1.8753,1.8757,1.8775,1.8773,1.8789,1.8787,1.8813,1.8806,1.8806,1.8806,1.8806,0,1.8032,1.8078,1.8153,1.8189,1.8241,1.8292,1.8342,1.8381,1.8433,1.8476,1.8513,1.8552,1.8609,1.8655,1.869,1.8744,1.8758,1.8779,1.8788,1.8776,1.8773,1.8796,1.8795,1.8807,1.8807,1.8807,1.8807,0,1.8031,1.8083,1.815,1.8226,1.8246,1.828,1.8344,1.838,1.8419,1.8473,1.8488,1.855,1.8605,1.8654,1.8728,1.8751,1.8805,1.8817,1.8786,1.8791,1.8806,1.8803,1.8848,1.8856,1.8843,1.8843,1.8843,0,1.8047,1.8084,1.8163,1.8196,1.8232,1.8283,1.832,1.837,1.8406,1.8475,1.8502,1.856,1.861,1.8696,1.8746,1.8802,1.8814,1.8826,1.8823,1.8809,1.8814,1.8812,1.8815,1.8826,1.8826,1.8825,1.8825,0,1.807,1.8094,1.8146,1.8207,1.8249,1.8299,1.835,1.8373,1.8433,1.8471,1.8529,1.8567,1.8642,1.8698,1.8759,1.8795,1.882,1.8826,1.8833,1.8821,1.8802,1.8812,1.8785,1.8825,1.8825,1.8825,1.8825,1.8825,1.8079,1.8113,1.8173,1.8229,1.8273,1.8319,1.8355,1.8399,1.8449,1.8514,1.854,1.8598,1.8654,1.8739,1.8774,1.8819,1.8824,1.8834,1.8837,1.8838,1.8836,1.8794,1.883,1.8831,1.8831,1.8831,1.8831,0,1.8104,1.8144,1.8195,1.8265,1.8308,1.8328,1.8385,1.8419,1.847,1.8521,1.8569,1.8634,1.8688,1.8742,1.8799,1.8825,1.8837,1.8838,1.8837,1.8844,1.8829,1.8817,1.8827,1.8827,1.8827,1.8827,1.8827,1.8827,1.8122,1.8179,1.8209,1.8288,1.8328,1.8386,1.8416,1.8458,1.8498,1.857,1.8616,1.865,1.8702,1.8763,1.8813,1.8827,1.8846,1.8844,1.8861,1.8846,1.8846,1.8845,1.8835,1.8848,1.8848,1.8873,1.8873,1.8873]},{"header":{"parameterUnit":"m.s-1","parameterCategory":1,"la1":30.2991,"la2":30.254,"lo1":-89.0895,"lo2":-89.0444,"dy":0.0017,"dx":0.0017,"nx":28,"ny":28,"refTime":"2024-08-13T21:00:00:Z","depth":0,"parameterNumber":3,"parameterNumberName":"V-component_of_WINDS"},"data":[0,0,0,0,0,0,0,0,0,0,0,0,0,0,0,0,0,0,0,0,0,0,0,0,0,0,0,0,0,0,0,0,0,0,0,0,0,0,0,0,0,0,0,0,0,0,0,0,0,0,0,0,0,0,0,0,0,0,3.0373,3.0374,0,3.0511,3.0513,3.0514,3.0433,3.0429,3.0425,3.0422,3.0569,3.0576,3.0584,0,0,0,0,0,0,0,0,0,0,0,0,0,3.0037,3.0043,3.0373,3.0374,3.0376,3.0511,3.0513,3.0515,3.0434,3.0429,3.0424,3.042,3.0566,3.0575,3.0585,0,0,0,0,0,0,0,0,0,0,0,0,0,3.018,3.0045,3.0372,3.0352,3.0351,3.051,3.0513,3.0515,3.0435,3.0429,3.0423,3.0418,3.0563,3.0575,3.0586,3.0775,0,0,3.0621,3.0626,0,0,0,0,0,0,0,0,3.0172,3.0192,3.0353,3.0354,3.0353,3.0449,3.0448,3.0602,3.0436,3.0404,3.0421,3.0415,3.0534,3.0547,3.0587,3.0781,3.0788,3.0622,3.0629,3.0633,3.0637,0,0,0,0,0,0,0,3.0162,3.0186,3.0428,3.0356,3.0356,3.0335,3.0349,3.0477,3.0501,3.0406,3.04,3.0417,3.0533,3.0576,3.059,3.079,3.0621,3.0631,3.0638,3.0643,3.1136,3.1142,0,0,0,0,0,0,3.0153,3.0178,3.0423,3.0432,3.0246,3.0346,3.0361,3.0424,3.0499,3.0504,3.0422,3.0413,3.0559,3.0576,3.0594,3.0815,3.0633,3.0644,3.0651,3.1129,3.1137,3.1144,0,0,0,0,0,0,3.0146,3.0176,3.0418,3.0303,3.0332,3.0358,3.0429,3.043,3.0473,3.0511,3.0515,3.0462,3.0555,3.0578,3.0728,3.0819,3.0649,3.066,3.1122,3.1132,3.114,3.1261,0,0,0,0,0,0,3.0137,3.0174,3.0248,3.0305,3.0339,3.055,3.0435,3.0437,3.0492,3.0481,3.0549,3.0555,3.0552,3.0711,3.0739,3.0832,3.0668,3.1114,3.1126,3.1137,3.1249,3.1273,3.1294,0,0,0,0,0,3.0125,3.028,3.0252,3.0282,3.0431,3.0556,3.0575,3.0567,3.05,3.0573,3.0595,3.0553,3.0803,3.0727,3.0758,3.0855,3.1108,3.1123,3.1137,3.1239,3.1269,3.1293,0,0,0,0,0,0,3.0238,3.0287,3.0257,3.0435,3.0491,3.0542,3.0635,3.06,3.0679,3.0666,3.0654,3.067,3.0824,3.0854,3.0768,3.1036,3.0945,3.0966,3.1012,3.1041,3.1063,3.1054,3.0678,0,0,0,0,0,3.0282,3.0378,3.0416,3.0569,3.0598,3.0611,3.0666,3.0653,3.0712,3.0736,3.0771,3.083,3.092,3.0982,3.1069,3.125,3.1262,3.1332,3.1354,3.1372,3.1392,3.1483,3.1513,3.119,3.119,3.119,0,0,3.0377,3.0415,3.0479,3.0592,3.0635,3.0733,3.0633,3.0744,3.0816,3.0754,3.0896,3.0921,3.0986,3.115,3.1225,3.118,3.1482,3.139,3.1405,3.1414,3.1501,3.1531,3.1558,3.12,3.1198,3.1196,0,0,3.06,3.064,3.0768,3.0809,3.0872,3.0877,3.0907,3.0961,3.0975,3.1115,3.1068,3.1152,3.1312,3.1357,3.1402,3.1627,3.159,3.1655,3.1775,3.1864,3.1889,3.1912,3.1989,3.2018,3.1674,3.1674,3.1674,0,3.0712,3.0858,3.0839,3.095,3.0999,3.094,3.1068,3.111,3.1199,3.1233,3.1181,3.1372,3.1412,3.1583,3.1636,3.1675,3.1707,3.1651,3.1887,3.1909,3.193,3.2004,3.2033,3.1682,3.1681,3.168,3.1679,0,3.0988,3.109,3.1185,3.1266,3.1325,3.1445,3.1442,3.1504,3.1482,3.1492,3.1632,3.1675,3.1766,3.1805,3.1789,3.1971,3.194,3.1888,3.1796,3.1969,3.2037,3.2066,3.1692,3.169,3.1687,3.1685,0,0,3.1297,3.1356,3.1391,3.1423,3.1482,3.156,3.1672,3.1756,3.1808,3.1868,3.196,3.209,3.2037,3.2087,3.2074,3.2152,3.2322,3.2088,3.2089,3.2129,3.2519,3.256,3.2593,3.2294,3.23,3.2304,3.2513,0,3.1521,3.1717,3.1698,3.1883,3.1973,3.1912,3.2009,3.2054,3.2064,3.214,3.215,3.2241,3.2168,3.2196,3.227,3.2286,3.24,3.227,3.238,3.2384,3.2367,3.2629,3.2675,3.2871,3.254,3.2545,3.2548,0,3.1813,3.1876,3.2069,3.2104,3.2141,3.2229,3.2299,3.2374,3.2421,3.2421,3.247,3.244,3.255,3.2452,3.2601,3.2512,3.2554,3.2568,3.2575,3.2587,3.2479,3.2648,3.2934,3.2963,3.2591,3.2588,3.2585,0,3.2014,3.2147,3.2278,3.2307,3.2353,3.2415,3.2437,3.2477,3.2526,3.2587,3.2617,3.2691,3.2733,3.2789,3.2778,3.2708,3.2929,3.2831,3.2931,3.2932,3.2984,3.2982,3.3281,3.301,3.301,3.3009,3.3008,0,3.2269,3.2389,3.2367,3.2449,3.2578,3.2552,3.2681,3.2695,3.2729,3.281,3.2762,3.2838,3.2818,3.2893,3.2885,3.3006,3.3026,3.3028,3.3025,3.3034,3.3033,3.3064,3.305,3.3017,3.3015,3.3014,3.3012,0,3.2519,3.251,3.2647,3.2674,3.2683,3.2778,3.2801,3.2875,3.2875,3.2977,3.2999,3.3001,3.3085,3.3078,3.3175,3.3168,3.3318,3.3299,3.3302,3.3298,3.3398,3.3388,3.3728,3.377,3.3472,3.3475,3.3477,0,3.2683,3.2772,3.2805,3.2853,3.2878,3.2958,3.3003,3.2978,3.3028,3.3081,3.3148,3.3226,3.3289,3.3425,3.3436,3.3507,3.3488,3.3602,3.35,3.3502,3.3488,3.3483,3.349,3.3624,3.3627,3.363,3.3632,0,3.2973,3.296,3.3029,3.3092,3.3147,3.3197,3.3242,3.3285,3.3262,3.332,3.3403,3.345,3.3543,3.3621,3.3686,3.3707,3.3666,3.3662,3.3689,3.37,3.3697,3.3698,3.3358,3.3657,3.3654,3.3652,3.3651,3.365,3.3184,3.3257,3.3289,3.3364,3.3392,3.3433,3.3501,3.3506,3.3574,3.3646,3.3625,3.3718,3.3753,3.3835,3.3862,3.3933,3.3892,3.3931,3.3941,3.3952,3.3962,3.3683,3.3945,3.3944,3.3943,3.3943,3.3942,0,3.347,3.3484,3.3553,3.3613,3.367,3.3618,3.3663,3.3714,3.3795,3.383,3.3889,3.398,3.4052,3.4063,3.413,3.4184,3.4166,3.4203,3.42,3.4204,3.3996,3.3966,3.4216,3.4216,3.4216,3.4216,3.4215,3.4215,3.3626,3.3745,3.3735,3.3865,3.3879,3.3966,3.3995,3.403,3.4057,3.416,3.4217,3.4222,3.4246,3.4312,3.4374,3.4375,3.4402,3.4446,3.444,3.4247,3.422,3.4194,3.4165,3.4453,3.4453,3.4642,3.4644,3.4645]}]]